Le nostre stazioni meteo in Italia

Pubblicità
Il mio iltempo24.it
Torino Venaria, Italia (16060): Temperatura & dewpoint: 18.06.2018 22:00:00 - 24.06.2018 22:00:00 (CEST)Torino Venaria, Italia (16060): velocità del vento: 18.06.2018 22:00:00 - 24.06.2018 22:00:00 (CEST)Torino Venaria, Italia (16060): direzione del vento: 18.06.2018 22:00:00 - 24.06.2018 22:00:00 (CEST)Torino Venaria, Italia (16060): reduced air pressure: 18.06.2018 22:00:00 - 24.06.2018 22:00:00 (CEST)Torino Venaria, Italia (16060): precipitazioni: 18.06.2018 22:00:00 - 24.06.2018 22:00:00 (CEST)
Data & Tempo tt [°C] td [°C] ff [km/h] ff [kn] dd ppp [hPa] rr [mm]
24.06.2018 22:00:00 - - - - - - -
24.06.2018 21:00:00 20,7 14,5 9 5 S 1013,1 -
24.06.2018 20:00:00 22,0 14,0 11 6 SSO 1013,0 0,0
24.06.2018 19:00:00 23,3 13,9 5 3 O 1012,5 -
24.06.2018 18:00:00 23,2 13,9 5 3 OSO 1012,8 -
24.06.2018 17:00:00 23,4 14,0 9 5 ONO 1012,8 -
24.06.2018 16:00:00 22,5 14,8 13 7 ONO 1013,6 -
24.06.2018 15:00:00 21,7 12,2 5 3 NE 1014,2 -
24.06.2018 14:00:00 22,3 12,5 11 6 NE 1014,6 0,0
24.06.2018 13:00:00 22,4 12,8 5 3 S 1014,8 -
24.06.2018 12:00:00 20,8 12,4 8 4 NE 1015,5 -
24.06.2018 11:00:00 19,7 12,2 8 4 NE 1015,9 -
24.06.2018 10:00:00 19,3 11,5 9 5 NE 1016,0 -
24.06.2018 09:00:00 18,1 12,5 9 5 NE 1016,2 -
24.06.2018 08:00:00 17,4 13,4 8 4 NE 1016,1 0,0
24.06.2018 07:00:00 15,5 15,4 2 1 NNO 1016,1 -
24.06.2018 06:00:00 15,2 15,1 4 2 ONO 1015,8 -
24.06.2018 05:00:00 14,8 14,7 4 2 NO 1015,7 -
24.06.2018 04:00:00 14,9 14,2 4 2 NO 1016,0 -
24.06.2018 03:00:00 15,3 14,1 4 2 NO 1016,2 -
24.06.2018 02:00:00 15,7 15,2 4 2 NO 1016,4 0,0
24.06.2018 01:00:00 15,6 15,2 4 2 ONO 1016,4 -
24.06.2018 00:00:00 17,0 16,1 4 2 NO 1016,0 -
23.06.2018 23:00:00 17,8 15,4 4 2 NO 1015,6 -
23.06.2018 22:00:00 18,9 14,5 2 1 NO 1014,9 -
23.06.2018 21:00:00 21,5 13,8 5 3 NO 1014,1 -
23.06.2018 20:00:00 22,9 13,3 8 4 O 1013,8 0,0
23.06.2018 19:00:00 23,8 14,1 8 4 SO 1013,6 -
23.06.2018 18:00:00 23,5 14,1 5 3 SSO 1014,1 -
23.06.2018 17:00:00 23,9 13,9 8 4 O 1014,7 -
23.06.2018 16:00:00 24,3 14,9 8 4 ONO 1015,3 -
23.06.2018 15:00:00 22,8 12,1 4 2 E 1016,1 -
23.06.2018 14:00:00 23,2 13,0 5 3 ESE 1016,6 0,0
23.06.2018 13:00:00 21,9 13,7 5 3 ENE 1017,5 -
23.06.2018 12:00:00 21,4 13,7 8 4 ENE 1018,0 -
23.06.2018 11:00:00 20,4 13,3 8 4 E 1018,4 -
23.06.2018 10:00:00 19,5 14,2 5 3 NNE 1018,6 -
23.06.2018 09:00:00 18,7 13,9 8 4 NNE 1018,7 -
23.06.2018 08:00:00 17,7 13,1 8 4 NNE 1018,7 -
23.06.2018 07:00:00 17,4 13,0 8 4 NNE 1018,6 -
23.06.2018 06:00:00 17,3 13,9 5 3 NNE 1018,3 -
23.06.2018 05:00:00 17,7 13,7 9 5 NE 1018,1 -
23.06.2018 04:00:00 17,9 15,3 11 6 NE 1017,7 -
23.06.2018 03:00:00 18,2 16,5 9 5 NE 1017,3 -
23.06.2018 02:00:00 18,9 17,5 9 5 NE 1017,0 -
23.06.2018 01:00:00 19,5 18,1 9 5 ENE 1016,2 -
23.06.2018 00:00:00 20,3 19,1 11 6 NE 1014,9 -
22.06.2018 23:00:00 21,6 19,6 8 4 NE 1013,6 -
22.06.2018 22:00:00 24,2 14,5 8 4 NE 1011,8 -
22.06.2018 21:00:00 25,5 10,9 5 3 N 1010,4 -
22.06.2018 20:00:00 27,5 9,8 8 4 NE 1009,5 0,0
22.06.2018 19:00:00 28,1 9,9 15 8 ENE 1008,8 -
22.06.2018 18:00:00 28,7 14,8 11 6 ENE 1008,5 -
22.06.2018 17:00:00 28,8 14,9 11 6 ENE 1008,2 -
22.06.2018 16:00:00 28,9 15,7 11 6 ENE 1008,2 -
22.06.2018 15:00:00 28,7 16,2 9 5 ENE 1008,3 -
22.06.2018 14:00:00 28,4 17,8 4 2 S 1008,7 0,0
22.06.2018 13:00:00 28,1 17,0 8 4 NNE 1009,0 -
22.06.2018 12:00:00 27,3 18,8 8 4 E 1009,0 -
22.06.2018 11:00:00 26,0 19,1 5 3 ESE 1008,8 -
22.06.2018 10:00:00 24,3 20,4 2 1 S 1008,5 -
22.06.2018 09:00:00 22,2 22,1 2 1 ONO 1008,8 -
22.06.2018 08:00:00 18,8 18,7 0 0 N 1008,7 0,0
22.06.2018 07:00:00 17,8 17,7 2 1 NNO 1008,7 -
22.06.2018 06:00:00 18,0 17,9 5 3 ONO 1008,4 -
22.06.2018 05:00:00 18,4 18,3 4 2 NO 1008,5 -
22.06.2018 04:00:00 18,4 18,3 4 2 NO 1008,8 -
22.06.2018 03:00:00 18,5 18,4 4 2 ONO 1009,2 -
22.06.2018 02:00:00 18,9 18,7 4 2 ONO 1009,5 0,0
22.06.2018 01:00:00 19,9 18,3 4 2 NNO 1009,6 -
22.06.2018 00:00:00 20,7 18,0 4 2 NO 1009,7 -
21.06.2018 23:00:00 22,1 17,8 5 3 NO 1009,5 -
21.06.2018 22:00:00 24,3 17,7 4 2 SO 1008,9 -
21.06.2018 21:00:00 27,2 18,7 2 1 NNE 1008,2 -
21.06.2018 20:00:00 28,3 19,7 5 3 OSO 1008,2 0,0
21.06.2018 19:00:00 29,6 19,8 9 5 OSO 1008,2 -
21.06.2018 18:00:00 29,7 19,1 9 5 OSO 1008,7 -
21.06.2018 17:00:00 29,6 19,0 9 5 SO 1009,2 -
21.06.2018 16:00:00 29,6 18,7 8 4 O 1010,0 -
21.06.2018 15:00:00 29,1 19,4 8 4 SO 1010,9 -
21.06.2018 14:00:00 28,7 18,7 4 2 NE 1011,8 0,0
21.06.2018 13:00:00 28,5 18,5 8 4 S 1012,5 -
21.06.2018 12:00:00 27,2 19,2 2 1 ONO 1013,1 -
21.06.2018 11:00:00 25,9 18,3 4 2 SO 1013,4 -
21.06.2018 10:00:00 25,2 19,0 4 2 E 1014,0 -
21.06.2018 09:00:00 22,4 18,9 2 1 ONO 1014,7 -
21.06.2018 08:00:00 20,0 19,9 0 0 N 1015,1 0,0
21.06.2018 07:00:00 17,2 17,1 4 2 O 1015,4 -
21.06.2018 06:00:00 17,2 17,1 5 3 NO 1015,3 -
21.06.2018 05:00:00 18,1 18,0 2 1 NO 1015,6 -
21.06.2018 04:00:00 18,7 18,6 2 1 NO 1016,1 -
21.06.2018 03:00:00 18,7 18,0 5 3 NO 1016,4 -
21.06.2018 02:00:00 19,1 17,4 0 0 N 1016,7 0,0
21.06.2018 01:00:00 20,0 17,5 5 3 ONO 1016,7 -
21.06.2018 00:00:00 20,6 17,3 4 2 ONO 1016,8 -
20.06.2018 23:00:00 22,2 17,3 4 2 NO 1016,7 -
20.06.2018 22:00:00 25,3 17,7 5 3 ENE 1015,6 -
20.06.2018 21:00:00 26,6 17,9 5 3 E 1014,9 -
20.06.2018 20:00:00 27,9 17,7 9 5 E 1014,6 0,0
20.06.2018 19:00:00 28,7 17,2 8 4 ENE 1014,5 -
20.06.2018 18:00:00 28,9 16,1 8 4 NE 1014,9 -
20.06.2018 17:00:00 29,3 16,8 5 3 ESE 1015,5 -
20.06.2018 16:00:00 29,3 16,8 9 5 E 1015,9 -
20.06.2018 15:00:00 28,7 16,9 8 4 NNE 1016,5 -
20.06.2018 14:00:00 28,6 14,7 8 4 NE 1017,0 0,0
20.06.2018 13:00:00 27,7 15,3 8 4 ENE 1017,7 -
20.06.2018 12:00:00 27,3 17,1 8 4 ENE 1017,9 -
20.06.2018 11:00:00 26,2 16,9 9 5 E 1018,1 -
20.06.2018 10:00:00 25,5 17,9 8 4 ENE 1018,3 -
20.06.2018 09:00:00 22,5 21,1 2 1 O 1018,6 -
20.06.2018 08:00:00 20,4 20,3 4 2 ONO 1018,7 0,0
20.06.2018 07:00:00 18,9 18,7 2 1 NO 1018,7 -
20.06.2018 06:00:00 19,1 18,9 0 0 N 1018,4 -
20.06.2018 05:00:00 18,8 18,3 0 0 N 1018,3 -
20.06.2018 04:00:00 19,6 18,2 2 1 ONO 1018,3 -
20.06.2018 03:00:00 21,0 17,9 2 1 N 1018,2 -
20.06.2018 02:00:00 21,8 19,3 2 1 NNO 1018,3 0,0
20.06.2018 01:00:00 21,9 19,8 2 1 NNO 1018,0 -
20.06.2018 00:00:00 21,3 18,8 4 2 ONO 1017,7 -
19.06.2018 23:00:00 21,7 16,8 2 1 NO 1016,8 -
19.06.2018 22:00:00 24,9 17,0 4 2 NE 1015,6 -
19.06.2018 21:00:00 26,5 18,0 5 3 NE 1014,8 -
19.06.2018 20:00:00 28,1 17,9 8 4 NE 1014,6 0,0
19.06.2018 19:00:00 28,8 17,9 5 3 NNE 1014,5 -
19.06.2018 18:00:00 29,0 16,8 9 5 ENE 1014,8 -
19.06.2018 17:00:00 29,3 17,4 9 5 E 1015,0 -
19.06.2018 16:00:00 29,4 18,5 5 3 NNO 1015,3 -
19.06.2018 15:00:00 28,8 19,4 4 2 NNO 1015,9 -
19.06.2018 14:00:00 27,7 18,4 8 4 NE 1016,6 0,0
19.06.2018 13:00:00 27,4 17,8 8 4 ENE 1017,0 -
19.06.2018 12:00:00 26,5 16,7 5 3 E 1017,2 -
19.06.2018 11:00:00 25,8 15,4 8 4 E 1017,3 -
19.06.2018 10:00:00 24,9 16,8 5 3 ENE 1017,4 -
19.06.2018 09:00:00 21,9 17,8 2 1 NO 1017,7 -
19.06.2018 08:00:00 18,8 18,7 4 2 ONO 1018,0 0,0
19.06.2018 07:00:00 16,0 15,9 0 0 N 1018,0 -
19.06.2018 06:00:00 15,2 15,1 4 2 ONO 1017,7 -
19.06.2018 05:00:00 16,2 16,1 4 2 NO 1017,1 -
19.06.2018 04:00:00 16,8 16,1 2 1 N 1016,9 -
19.06.2018 03:00:00 17,7 16,3 2 1 N 1016,7 -
19.06.2018 02:00:00 18,3 16,7 4 2 NNO 1016,5 0,0
19.06.2018 01:00:00 19,4 16,9 2 1 ONO 1016,2 -
19.06.2018 00:00:00 20,1 16,9 4 2 NO 1015,9 -
18.06.2018 23:00:00 21,0 16,9 4 2 NO 1015,3 -
18.06.2018 22:00:00 21,0 15,5 2 1 NO 1014,3 -

tt = Temperatura
td = dewpoint
ff = velocità del vento
dd = direzione del vento
ppp = reduced air pressure
rr = precipitazioni

Stazioni seguenti

WeatherPro
AMSI
MeteoEarth